Tracking 23762 objects as of 22-Oct-2021
HD Live streaming from Space Station
objects crossing your sky now

INTELSAT 601

Track INTELSAT 601 now!
INTELSAT 601 is classified as:


NORAD ID: 21765
Int'l Code: 1991-075A
Perigee: 35,976.9 km
Apogee: 35,997.6 km
Inclination: 11.7 °
Period: 1,446.0 minutes
Semi major axis: 42358 km
RCS: 16.4798 m2 (large)
Launch date: October 29, 1991
Source: International Telecommunications Satellite Organization (ITSO)
Launch site: FRENCH GUIANA (FRGUI)

64 C-band, 24 Ku-band; Broadcasting, business services, direct-to-home TV broadcasting, telecommunications, VSAT networks; Indian Ocean region.
aabbcc
Your satellite tracking list
Your tracking list is empty




NASA's NSSDC Master Catalog

Two Line Element Set (TLE):
1 21765U 91075A   21292.74901640 -.00000092  00000-0  00000-0 0  9992
2 21765  11.7225  28.3076 0002449   7.1383 351.2618  0.99585527109420
Source of the keplerian elements: AFSPC